FW9558 Weather Reports


Display with metric or nautical units.
time (UTC)temp
F
wind
direction
speed
MPH
gust
MPH
rain 1hr
in
rain 24hr
in
rain mn
in
humidity
%
barometer
mb
20260505054539 52 263 2.0 6.0 0.00 0.56 0.00 95 1010.6
20260505053036 52 263 1.0 6.0 0.00 0.56 0.00 95 1010.5
20260505051541 52 0 0.0 4.0 0.00 0.56 0.00 95 1010.5
20260505041549 53 272 1.0 6.0 0.00 0.56 0.00 94 1010.7
20260505040050 53 0 1.0 4.0 0.00 0.56 0.00 93 1010.7
20260505034539 53 272 1.0 4.0 0.00 0.56 0.00 93 1010.8
20260505033037 53 272 1.0 8.0 0.00 0.56 0.00 93 1010.9
20260505031542 53 271 1.0 6.0 0.00 0.56 0.00 93 1010.9
20260505030041 54 290 0.0 7.0 0.00 0.56 0.00 93 1011.0
20260505024553 54 281 1.0 6.0 0.00 0.56 0.00 93 1010.9
20260505023040 54 265 2.0 7.0 0.00 0.56 0.00 93 1010.8
20260505021539 54 271 1.0 6.0 0.00 0.56 0.00 93 1010.9
20260505020037 54 278 2.0 5.0 0.00 0.56 0.00 93 1010.9
20260505014553 54 0 1.0 3.0 0.00 0.56 0.00 93 1011.1
20260505013041 54 270 0.0 4.0 0.00 0.56 0.00 92 1011.0
20260505011535 54 275 1.0 6.0 0.00 0.56 0.00 92 1011.0
20260505010052 54 273 2.0 7.0 0.00 0.56 0.00 92 1011.2
20260505004541 55 246 1.0 6.0 0.00 0.56 0.00 92 1011.3
20260505003035 55 0 1.0 6.0 0.00 0.56 0.00 91 1011.3
20260505001538 55 0 1.0 4.0 0.00 0.56 0.00 91 1011.4
20260505000048 55 257 2.0 5.0 0.00 0.56 0.00 91 1011.6
20260504234545 55 274 1.0 4.0 0.00 0.56 0.00 91 1011.7
20260504233058 55 263 1.0 4.0 0.00 0.56 0.00 90 1011.8
20260504231543 55 0 1.0 6.0 0.00 0.56 0.00 90 1011.8
20260504230039 55 0 0.0 5.0 0.00 0.56 0.00 89 1011.8
20260504224539 55 0 0.0 5.0 0.00 0.61 0.00 88 1012.0
20260504223056 55 0 0.0 3.0 0.00 0.61 0.00 87 1012.0
20260504221539 55 0 0.0 4.0 0.00 0.61 0.00 87 1012.1
20260504220040 55 263 2.0 7.0 0.00 0.61 0.00 88 1012.3
20260504214538 55 0 1.0 7.0 0.00 0.77 0.61 90 1012.4
20260504213049 56 279 2.0 7.0 0.00 0.77 0.61 91 1012.5
20260504211536 57 253 1.0 4.0 0.00 0.77 0.61 91 1012.7
20260504210039 57 263 2.0 7.0 0.00 0.77 0.61 90 1012.7
20260504204545 57 269 2.0 4.0 0.00 0.77 0.61 89 1012.6
20260504203046 57 303 1.0 6.0 0.00 0.77 0.61 90 1012.5
20260504201537 57 272 1.0 4.0 0.00 0.77 0.61 90 1012.4
20260504200036 57 284 1.0 4.0 0.00 0.77 0.61 90 1012.1
20260504194536 57 0 0.0 0.0 0.00 0.77 0.61 90 1012.2
20260504193040 57 0 0.0 0.0 0.00 0.77 0.61 89 1012.0
20260504191539 57 0 0.0 0.0 0.00 0.77 0.61 89 1012.0
20260504190044 58 0 0.0 3.0 0.00 0.77 0.61 89 1011.9
20260504184533 58 0 0.0 2.0 0.00 0.77 0.61 88 1011.8
20260504183035 58 0 0.0 2.0 0.00 0.77 0.61 88 1011.7
20260504181544 58 51 1.0 5.0 0.00 0.77 0.61 87 1011.6
20260504180039 58 32 0.0 3.0 0.00 0.77 0.61 88 1011.8
20260504174538 58 0 1.0 4.0 0.00 0.77 0.61 87 1011.6
20260504173036 58 0 0.0 3.0 0.00 0.77 0.61 86 1011.9
20260504171537 58 0 0.0 4.0 0.00 0.77 0.61 86 1011.8
20260504081541 55 0 0.0 2.0 0.06 0.37 0.11 94 1012.6